Weather History for Stuttgart, AR

Change the Weather History Date:

Thursday, May 30, 2013

  Actual Average Record
Temperature  
Mean Temperature 79 °F -  
Max Temperature 87 °F 81 °F 93 °F (2003)
Min Temperature 71 °F 64 °F 64 °F (2001)
Cooling Degree Days 14    
Growing Degree Days 29 (Base 50)    
Moisture  
Dew Point 68 °F    
Average Humidity 72    
Maximum Humidity 83    
Minimum Humidity 49    
Precipitation  
Precipitation 0.23 in - - ()
Sea Level Pressure  
Sea Level Pressure 29.93 in    
Wind  
Wind Speed 14 mph (SSE)    
Max Wind Speed 24 mph    
Max Gust Speed 33 mph    
Visibility 10 miles    
Events Thunderstorm    
Averages and records for this station are not official NWS values.
T = Trace of Precipitation, MM = Missing Value Source: NWS Daily Summary

Daily Weather History Graph

Daily Weather History Graph

Search for Another Location

Airport:

Trip Planner

Search our weather history database for the weather conditions in past years. The results will help you decide how hot, cold, wet, or windy it might be!

Date:

Astronomy

May. 30, 2013 Rise Set
Actual Time 5:55 AM CDT 8:12 PM CDT
Civil Twilight 5:26 AM CDT 8:41 PM CDT
Nautical Twilight 4:50 AM CDT 9:17 PM CDT
Astronomical Twilight 4:12 AM CDT 9:56 PM CDT
Moon 12:22 AM CDT (5/30) 11:54 AM CDT (5/30)
Length of Visible Light 15h 15m
Length of Day
14h 17m
Waning Gibbous, 62% of the Moon is Illuminated
May 30
Waning Gibbous
May 31
Last Quarter
Jun 8
New
Jun 16
First Quarter
Jun 23
Full

Hourly Weather History & Observations

Time (CDT) Temp. Heat Index Dew Point Humidity Pressure Visibility Wind Dir Wind Speed Gust Speed Precip Events Conditions
12:15 AM 73.4 °F - 68.0 °F 83% 29.94 in 10.0 mi SE 8.1 mph - N/A   Clear
12:35 AM 73.4 °F - 68.0 °F 83% 29.94 in 10.0 mi SSE 8.1 mph - N/A   Clear
12:55 AM 73.4 °F - 68.0 °F 83% 29.94 in 10.0 mi SSE 8.1 mph - N/A   Partly Cloudy
1:15 AM 73.4 °F - 68.0 °F 83% 29.94 in 10.0 mi SSE 9.2 mph - N/A   Partly Cloudy
1:35 AM 73.4 °F - 68.0 °F 83% 29.94 in 10.0 mi SSE 9.2 mph - N/A   Mostly Cloudy
1:55 AM 73.4 °F - 68.0 °F 83% 29.93 in 10.0 mi SSE 9.2 mph - N/A   Partly Cloudy
2:15 AM 75.2 °F - 68.0 °F 78% 29.93 in 10.0 mi SSE 12.7 mph - N/A   Partly Cloudy
2:36 AM 75.2 °F - 68.0 °F 78% 29.92 in 10.0 mi SSE 11.5 mph - N/A   Partly Cloudy
2:55 AM 75.2 °F - 68.0 °F 78% 29.92 in 10.0 mi SSE 12.7 mph - N/A   Mostly Cloudy
3:15 AM 75.2 °F - 68.0 °F 78% 29.92 in 10.0 mi SSE 13.8 mph - N/A   Mostly Cloudy
3:35 AM 75.2 °F - 68.0 °F 78% 29.92 in 10.0 mi SSE 12.7 mph - N/A   Overcast
3:55 AM 75.2 °F - 68.0 °F 78% 29.92 in 10.0 mi SSE 13.8 mph - N/A   Overcast
4:15 AM 75.2 °F - 68.0 °F 78% 29.92 in 10.0 mi SSE 13.8 mph - N/A   Overcast
4:35 AM 75.2 °F - 68.0 °F 78% 29.93 in 10.0 mi SSE 12.7 mph - N/A   Overcast
4:55 AM 75.2 °F - 68.0 °F 78% 29.94 in 10.0 mi SSE 12.7 mph 17.3 mph N/A   Overcast
5:15 AM 75.2 °F - 68.0 °F 78% 29.94 in 10.0 mi SSE 13.8 mph - N/A   Overcast
5:35 AM 75.2 °F - 68.0 °F 78% 29.95 in 10.0 mi SSE 12.7 mph - N/A   Overcast
5:55 AM 75.2 °F - 68.0 °F 78% 29.95 in 10.0 mi SSE 12.7 mph - N/A   Overcast
6:15 AM 75.2 °F - 68.0 °F 78% 29.95 in 10.0 mi SSE 13.8 mph - N/A   Overcast
6:35 AM 75.2 °F - 68.0 °F 78% 29.96 in 10.0 mi SSE 12.7 mph - N/A   Mostly Cloudy
6:55 AM 75.2 °F - 68.0 °F 78% 29.96 in 10.0 mi SSE 13.8 mph - N/A   Mostly Cloudy
7:16 AM 75.2 °F - 68.0 °F 78% 29.96 in 10.0 mi SSE 16.1 mph - N/A   Mostly Cloudy
7:35 AM 75.2 °F - 68.0 °F 78% 29.96 in 10.0 mi SSE 15.0 mph - N/A   Scattered Clouds
7:55 AM 75.2 °F - 68.0 °F 78% 29.97 in 10.0 mi SSE 17.3 mph 21.9 mph N/A   Mostly Cloudy
8:15 AM 77.0 °F - 69.8 °F 78% 29.97 in 10.0 mi South 20.7 mph - N/A   Mostly Cloudy
8:35 AM 78.8 °F - 68.0 °F 69% 29.97 in 10.0 mi SSE 16.1 mph 25.3 mph N/A   Overcast
8:55 AM 78.8 °F - 68.0 °F 69% 29.98 in 10.0 mi SSE 17.3 mph 20.7 mph N/A   Overcast
9:15 AM 77.0 °F - 68.0 °F 74% 29.98 in 10.0 mi South 13.8 mph 19.6 mph N/A   Overcast
9:35 AM 78.8 °F - 68.0 °F 69% 29.98 in 10.0 mi South 20.7 mph - N/A   Overcast
9:55 AM 80.6 °F 83.2 °F 68.0 °F 65% 29.98 in 10.0 mi South 18.4 mph 23.0 mph N/A   Mostly Cloudy
10:15 AM 80.6 °F 83.9 °F 69.8 °F 70% 29.98 in 10.0 mi South 21.9 mph - N/A   Mostly Cloudy
10:35 AM 82.4 °F 86.3 °F 69.8 °F 66% 29.99 in 10.0 mi South 20.7 mph 25.3 mph N/A   Mostly Cloudy
10:55 AM 82.4 °F 85.4 °F 68.0 °F 62% 29.98 in 10.0 mi SSE 19.6 mph 24.2 mph N/A   Scattered Clouds
11:15 AM 84.2 °F 88.4 °F 69.8 °F 62% 29.98 in 10.0 mi SSE 19.6 mph 24.2 mph N/A   Mostly Cloudy
11:35 AM 86.0 °F 89.4 °F 68.0 °F 55% 29.97 in 10.0 mi SSE 20.7 mph 28.8 mph N/A   Partly Cloudy
11:55 AM 86.0 °F 89.4 °F 68.0 °F 55% 29.97 in 10.0 mi South 24.2 mph 31.1 mph N/A   Scattered Clouds
12:15 PM 84.2 °F 87.3 °F 68.0 °F 58% 29.96 in 10.0 mi SSE 20.7 mph 27.6 mph N/A   Scattered Clouds
12:35 PM 86.0 °F 89.4 °F 68.0 °F 55% 29.95 in 10.0 mi South 23.0 mph 29.9 mph N/A   Scattered Clouds
12:55 PM 87.8 °F 91.4 °F 68.0 °F 52% 29.93 in 10.0 mi SSE 23.0 mph 31.1 mph N/A   Scattered Clouds
1:15 PM 87.8 °F 90.4 °F 66.2 °F 49% 29.94 in 10.0 mi South 23.0 mph 33.4 mph N/A   Mostly Cloudy
1:35 PM - - - N/A% 29.93 in 10.0 mi SSE 23.0 mph 29.9 mph N/A   Mostly Cloudy
1:55 PM - - - N/A% 29.92 in 10.0 mi SSE 21.9 mph 33.4 mph N/A   Mostly Cloudy
2:15 PM 87.8 °F 90.4 °F 66.2 °F 49% 29.92 in 10.0 mi South 21.9 mph 29.9 mph N/A   Mostly Cloudy
2:35 PM 86.0 °F 88.2 °F 66.2 °F 51% 29.91 in 10.0 mi SSE 16.1 mph - N/A   Mostly Cloudy
2:56 PM 84.2 °F 88.4 °F 69.8 °F 62% 29.90 in 10.0 mi SSE 18.4 mph - N/A   Scattered Clouds
3:15 PM 84.2 °F 88.4 °F 69.8 °F 62% 29.89 in 10.0 mi SSE 20.7 mph 26.5 mph N/A   Partly Cloudy
3:35 PM 84.2 °F 88.4 °F 69.8 °F 62% 29.88 in 10.0 mi SSE 19.6 mph 24.2 mph N/A   Scattered Clouds
3:55 PM 84.2 °F 88.4 °F 69.8 °F 62% 29.89 in 10.0 mi SSE 17.3 mph 23.0 mph N/A   Scattered Clouds
4:15 PM 84.2 °F 88.4 °F 69.8 °F 62% 29.90 in 10.0 mi SSE 19.6 mph - N/A Thunderstorm Mostly Cloudy
4:35 PM 82.4 °F 86.3 °F 69.8 °F 66% 29.91 in 10.0 mi South 20.7 mph 25.3 mph N/A   Mostly Cloudy
4:55 PM 78.8 °F - 69.8 °F 74% 29.90 in 10.0 mi South 12.7 mph - N/A Thunderstorm Thunderstorm
5:15 PM 78.8 °F - 69.8 °F 74% 29.90 in 10.0 mi South 6.9 mph - N/A   Partly Cloudy
5:36 PM 78.8 °F - 71.6 °F 78% 29.88 in 10.0 mi SSE 9.2 mph - N/A   Clear
5:55 PM 78.8 °F - 69.8 °F 74% 29.86 in 10.0 mi SSE 13.8 mph 17.3 mph N/A   Clear
6:16 PM 78.8 °F - 68.0 °F 69% 29.86 in 10.0 mi SSE 11.5 mph - N/A   Clear
6:35 PM 78.8 °F - 68.0 °F 69% 29.86 in 10.0 mi SSE 8.1 mph - N/A   Clear
6:55 PM 78.8 °F - 69.8 °F 74% 29.87 in 10.0 mi SE 6.9 mph - N/A   Clear
7:15 PM 78.8 °F - 69.8 °F 74% 29.88 in 10.0 mi SE 10.4 mph - N/A   Scattered Clouds
7:35 PM 78.8 °F - 69.8 °F 74% 29.88 in 10.0 mi SE 11.5 mph - N/A   Mostly Cloudy
7:55 PM 78.8 °F - 69.8 °F 74% 29.90 in 10.0 mi SSE 16.1 mph 24.2 mph N/A   Overcast
8:15 PM 77.0 °F - 69.8 °F 78% 29.90 in 10.0 mi SSE 13.8 mph - N/A   Overcast
8:35 PM 75.2 °F - 69.8 °F 83% 29.90 in 10.0 mi SSE 17.3 mph 21.9 mph N/A Thunderstorm Thunderstorm
9:15 PM 73.4 °F - 66.2 °F 78% 29.91 in 10.0 mi SSE 17.3 mph 26.5 mph N/A   Mostly Cloudy
9:35 PM 73.4 °F - 66.2 °F 78% 29.92 in 8.0 mi SSE 18.4 mph 24.2 mph N/A Thunderstorm Thunderstorm
9:55 PM 73.4 °F - 66.2 °F 78% 29.94 in 10.0 mi SSE 18.4 mph 25.3 mph N/A Thunderstorm Mostly Cloudy
10:15 PM 73.4 °F - 66.2 °F 78% 29.93 in 10.0 mi SE 13.8 mph - N/A Thunderstorm Thunderstorm
10:35 PM 71.6 °F - 66.2 °F 83% 29.92 in 10.0 mi SE 17.3 mph 23.0 mph N/A   Overcast
10:55 PM 71.6 °F - 66.2 °F 83% 29.90 in 10.0 mi SE 20.7 mph 26.5 mph 0.15 in Thunderstorm Overcast
11:15 PM 71.6 °F - 66.2 °F 83% 29.90 in 10.0 mi SE 15.0 mph 23.0 mph 0.07 in Thunderstorm Thunderstorm
11:35 PM 71.6 °F - 64.4 °F 78% 29.93 in 10.0 mi North 8.1 mph - 0.08 in Thunderstorm Overcast
11:55 PM 73.4 °F - 66.2 °F 78% 29.93 in 10.0 mi East 6.9 mph - 0.08 in Thunderstorm Overcast